Regional Weather Roundup
Issued by NWS

Home | Current Version | Previous Version | Text Only | Print | Product List | Glossary Off
Versions: 1 2 3 4 5 6 7 8 9 10 11 12 13 14 15 16 17 18 19 20 21 22 23 24 25 26 27 28 29 30 31 32 33 34 35 36 37 38 39 40 41 42 43 44 45 46 47 48 49 50

000
ASUS45 KABQ 021301
RWRNM
WEATHER ROUNDUP FOR NEW MEXICO
NATIONAL WEATHER SERVICE ALBUQUERQUE NM
700 AM MDT THU OCT 02 2014

NOTE: "FAIR" MEANS FEW OR NO CLOUDS BELOW 12,000 FEET AGL WITH NO
       SIGNIFICANT WEATHER OR OBSTRUCTIONS TO VISION.

      THIS PRODUCT IS RELEASED AS TWO VERSIONS.  ONE VERSION NEAR
      THE TOP OF THE HOUR CONTAINING PRELIMINARY DATA FROM ALBUQUERQUE
      AND OTHER STATIONS.  A FINAL VERSION WITH ADDITIONAL DATA IS
      ISSUED ABOUT 10 MINUTES AFTER THE HOUR.

NMZ501-503-504-510>518-021400-
NORTHWEST PLATEAU/NORTHCENTRAL MOUNTAINS

CITY           SKY/WX    TMP DP  RH WIND       PRES   REMARKS
FARMINGTON     CLEAR     41  30  65 N3        30.18R
LOS ALAMOS     CLEAR     43  14  30 N8G17     30.17R
SANTA FE       CLEAR     40  27  59 N9        30.13R WCI  34
TAOS           CLOUDY    43  27  52 N17       30.18R
ANGEL FIRE     CLOUDY    38  28  65 NE13      30.18R WCI  30

$$
NMZ402-403-502-505>509-021400-
WESTCENTRAL MOUNTAINS/SOUTHWEST MOUNTAINS

CITY           SKY/WX    TMP DP  RH WIND       PRES   REMARKS
GALLUP         CLEAR     34  28  79 S3        30.25S
GRANTS         CLEAR     36  25  64 NW10      30.25S WCI  28
SILVER CITY    CLEAR     50  36  57 NW9       30.16R

$$
NMZ407-409-411-412-021400-
SOUTHERN DESERTS

CITY           SKY/WX    TMP DP  RH WIND       PRES   REMARKS
LORDSBURG      FAIR      52  36  54 MISG      30.10R
DEMING         CLEAR     52  37  56 CALM      30.08R
LAS CRUCES     CLEAR     50  37  60 W8        30.08R
HOLLOMAN AFB   CLEAR     50  38  62 NE8       30.03R
ALAMOGORDO     CLEAR     57  36  44 N9        30.05R
T OR C         CLEAR     61  37  41 N6        30.10R

$$
NMZ519>523-021400-
CENTRAL VALLEYS/CENTRAL HIGHLANDS

CITY           SKY/WX    TMP DP  RH WIND       PRES   REMARKS
ALBUQUERQUE    CLEAR     53  24  32 NW9       30.17R
DOUBLE EAGLE   PTCLDY    46  21  36 NW22      30.17R
CLINES CORNERS CLEAR     44  31  60 W25       30.11R
BELEN          FAIR      50  27  41 NW12      30.17
SOCORRO        FAIR      55  37  50 NE8       30.13R

$$
NMZ524>526-539-540-021400-
SOUTHCENTRAL MOUNTAINS

CITY           SKY/WX    TMP DP  RH WIND       PRES   REMARKS
RUIDOSO        NOT AVBL

$$
NMZ527>531-021400-
NORTHEAST HIGHLANDS/NORTHEAST PLAINS

CITY           SKY/WX    TMP DP  RH WIND       PRES   REMARKS
LAS VEGAS      PTCLDY    45  28  51 N7        30.11R
RATON          PTCLDY    41  33  73 N12       30.12R
CLAYTON        PTCLDY    47  35  63 N13G23    30.07R

$$
NMZ532>537-021400-
EASTCENTRAL PLAINS

CITY           SKY/WX    TMP DP  RH WIND       PRES   REMARKS
TUCUMCARI      PTCLDY    53  43  68 N10       30.03R
CANNON AFB     PTCLDY    53  45  73 N12       30.01R
CLOVIS AIRPORT   N/A     54  43  66 N20G25    30.03R

$$
NMZ028-029-538-021400-
SOUTHEAST PLAINS

CITY           SKY/WX    TMP DP  RH WIND       PRES   REMARKS
ROSWELL        CLEAR     54  44  69 W6        29.99R
CARLSBAD       CLEAR     55  46  71 E9        29.96R
HOBBS          CLEAR     61  41  48 W14       29.96R


$$


USA.gov is the U.S. government's official web portal to all federal, state and local government web resources and services.